• In Belgien
  • Länderverzeichnis
  • Für 7 Tage
  • Wassertemperatur
  • Satellitenkarten
  • Wetterkarte
  • Widgets
  • user-avatar
    Anmelden

    Stündliche Wetter Cairns

    Heute, 18 Juni, Montag

    Zeit Temperatur Niederschläge Wind Luftdruck Luftfeuchtigkeit
    00:00 +19°C° 0,2 mm 5 m/S 763 mmHg 60%
    01:00 +19°C° 0,2 mm 5 m/S 763 mmHg 58%
    02:00 +19°C° 0,1 mm 5 m/S 763 mmHg 56%
    03:00 +19°C° 0,1 mm 5 m/S 763 mmHg 54%
    04:00 +19°C° 0 mm 6 m/S 763 mmHg 51%
    05:00 +19°C° 0 mm 6 m/S 763 mmHg 51%
    06:00 +19°C° 0 mm 6 m/S 763 mmHg 51%
    07:00 +19°C° 0 mm 6 m/S 763 mmHg 51%
    08:00 +20°C° 0 mm 6 m/S 763 mmHg 48%
    09:00 +22°C° 0 mm 6 m/S 763 mmHg 45%
    10:00 +26°C° 0 mm 6 m/S 763 mmHg 44%
    11:00 +27°C° 0 mm 6 m/S 763 mmHg 42%
    12:00 +28°C° 0 mm 6 m/S 762 mmHg 41%
    13:00 +29°C° 0 mm 6 m/S 762 mmHg 39%
    14:00 +28°C° 0 mm 6 m/S 762 mmHg 41%
    15:00 +27°C° 0 mm 6 m/S 761 mmHg 43%
    16:00 +27°C° 0 mm 6 m/S 761 mmHg 45%
    17:00 +23°C° 0 mm 6 m/S 762 mmHg 51%
    18:00 +21°C° 0 mm 6 m/S 762 mmHg 56%
    19:00 +19°C° 0 mm 5 m/S 762 mmHg 62%
    20:00 +17°C° 0 mm 5 m/S 763 mmHg 61%
    21:00 +17°C° 0 mm 5 m/S 763 mmHg 61%
    22:00 +17°C° 0 mm 5 m/S 764 mmHg 60%
    23:00 +16°C° 0 mm 5 m/S 764 mmHg 61%

    Morgen, 19 Juni, Dienstag

    Zeit Temperatur Niederschläge Wind Luftdruck Luftfeuchtigkeit
    00:00 +16°C° 0 mm 6 m/S 764 mmHg 63%
    01:00 +16°C° 0 mm 6 m/S 764 mmHg 64%
    02:00 +16°C° 0 mm 6 m/S 764 mmHg 67%
    03:00 +16°C° 0 mm 6 m/S 763 mmHg 70%
    04:00 +16°C° 0 mm 6 m/S 763 mmHg 73%
    05:00 +15°C° 0 mm 6 m/S 764 mmHg 71%
    06:00 +15°C° 0 mm 6 m/S 764 mmHg 68%
    07:00 +14°C° 0 mm 6 m/S 764 mmHg 66%
    08:00 +16°C° 0 mm 6 m/S 764 mmHg 57%
    09:00 +19°C° 0 mm 6 m/S 765 mmHg 49%
    10:00 +21°C° 0 mm 7 m/S 765 mmHg 41%
    11:00 +23°C° 0 mm 7 m/S 764 mmHg 39%
    12:00 +24°C° 0 mm 7 m/S 764 mmHg 38%
    13:00 +26°C° 0 mm 7 m/S 763 mmHg 36%
    14:00 +24°C° 0 mm 7 m/S 763 mmHg 39%
    15:00 +24°C° 0 mm 6 m/S 763 mmHg 41%
    16:00 +23°C° 0 mm 6 m/S 762 mmHg 44%
    17:00 +21°C° 0 mm 6 m/S 763 mmHg 52%
    18:00 +17°C° 0 mm 6 m/S 763 mmHg 61%
    19:00 +14°C° 0 mm 5 m/S 763 mmHg 70%
    20:00 +14°C° 0 mm 5 m/S 764 mmHg 68%
    21:00 +13°C° 0 mm 5 m/S 764 mmHg 67%
    22:00 +13°C° 0 mm 5 m/S 765 mmHg 66%
    23:00 +13°C° 0 mm 5 m/S 765 mmHg 66%

    übermorgen, 20 Juni, Mittwoch

    Zeit Temperatur Niederschläge Wind Luftdruck Luftfeuchtigkeit
    00:00 +13°C° 0 mm 5 m/S 764 mmHg 67%
    01:00 +13°C° 0 mm 5 m/S 764 mmHg 68%
    02:00 +12°C° 0 mm 5 m/S 764 mmHg 73%
    03:00 +12°C° 0 mm 5 m/S 764 mmHg 78%
    04:00 +12°C° 0 mm 5 m/S 763 mmHg 82%
    05:00 +12°C° 0 mm 5 m/S 764 mmHg 86%
    06:00 +13°C° 0 mm 5 m/S 764 mmHg 89%
    07:00 +13°C° 0 mm 5 m/S 764 mmHg 92%
    08:00 +15°C° 0 mm 5 m/S 764 mmHg 82%
    09:00 +19°C° 0 mm 6 m/S 764 mmHg 72%
    10:00 +22°C° 0 mm 6 m/S 765 mmHg 62%
    11:00 +23°C° 0 mm 6 m/S 764 mmHg 59%
    12:00 +24°C° 0 mm 6 m/S 763 mmHg 55%
    13:00 +26°C° 0 mm 6 m/S 763 mmHg 51%
    14:00 +26°C° 0 mm 6 m/S 763 mmHg 54%
    15:00 +24°C° 0 mm 6 m/S 762 mmHg 57%
    16:00 +24°C° 0 mm 6 m/S 762 mmHg 59%
    17:00 +21°C° 0 mm 5 m/S 762 mmHg 70%
    18:00 +19°C° 0 mm 5 m/S 763 mmHg 81%
    19:00 +16°C° 0 mm 5 m/S 763 mmHg 92%
    20:00 +15°C° 0 mm 5 m/S 764 mmHg 93%
    21:00 +15°C° 0 mm 4 m/S 764 mmHg 94%
    22:00 +14°C° 0 mm 4 m/S 765 mmHg 95%
    23:00 +14°C° 0 mm 4 m/S 765 mmHg 95%

    21 Juni, Donnerstag

    Zeit Temperatur Niederschläge Wind Luftdruck Luftfeuchtigkeit
    00:00 +14°C° 0 mm 4 m/S 764 mmHg 95%
    01:00 +14°C° 0 mm 4 m/S 764 mmHg 96%
    02:00 +14°C° 0 mm 4 m/S 764 mmHg 96%
    03:00 +13°C° 0 mm 4 m/S 764 mmHg 96%
    04:00 +13°C° 0 mm 4 m/S 763 mmHg 96%
    05:00 +13°C° 0 mm 5 m/S 764 mmHg 96%
    06:00 +13°C° 0 mm 5 m/S 764 mmHg 96%
    07:00 +13°C° 0 mm 5 m/S 764 mmHg 96%
    08:00 +16°C° 0 mm 5 m/S 764 mmHg 86%
    09:00 +19°C° 0 mm 5 m/S 765 mmHg 77%
    10:00 +22°C° 0 mm 5 m/S 765 mmHg 68%
    11:00 +23°C° 0 mm 5 m/S 764 mmHg 64%
    12:00 +25°C° 0 mm 5 m/S 764 mmHg 60%
    13:00 +26°C° 0 mm 5 m/S 763 mmHg 56%
    14:00 +26°C° 0 mm 5 m/S 763 mmHg 58%
    15:00 +25°C° 0 mm 5 m/S 762 mmHg 60%
    16:00 +25°C° 0 mm 5 m/S 762 mmHg 62%
    17:00 +22°C° 0 mm 5 m/S 762 mmHg 72%
    18:00 +20°C° 0 mm 5 m/S 763 mmHg 82%
    19:00 +17°C° 0 mm 5 m/S 763 mmHg 92%
    20:00 +16°C° 0 mm 5 m/S 764 mmHg 93%
    21:00 +16°C° 0 mm 5 m/S 764 mmHg 94%
    22:00 +17°C° 0 mm 4 m/S 765 mmHg 95%
    23:00 +17°C° 0 mm 4 m/S 764 mmHg 95%

    22 Juni, Freitag

    Zeit Temperatur Niederschläge Wind Luftdruck Luftfeuchtigkeit
    00:00 +17°C° 0 mm 4 m/S 764 mmHg 95%
    01:00 +18°C° 0 mm 4 m/S 763 mmHg 95%
    02:00 +18°C° 0 mm 4 m/S 763 mmHg 94%
    03:00 +17°C° 0 mm 5 m/S 763 mmHg 93%
    04:00 +19°C° 0 mm 5 m/S 762 mmHg 92%
    05:00 +18°C° 0 mm 4 m/S 763 mmHg 93%
    06:00 +18°C° 0 mm 4 m/S 763 mmHg 94%
    07:00 +17°C° 0 mm 4 m/S 763 mmHg 96%
    08:00 +19°C° 0,1 mm 5 m/S 764 mmHg 90%
    09:00 +21°C° 0,1 mm 5 m/S 764 mmHg 84%
    10:00 +23°C° 0,1 mm 5 m/S 764 mmHg 78%
    11:00 +23°C° 0,1 mm 5 m/S 763 mmHg 75%
    12:00 +25°C° 0,1 mm 5 m/S 763 mmHg 72%
    13:00 +26°C° 0,1 mm 5 m/S 762 mmHg 69%
    14:00 +26°C° 0 mm 5 m/S 762 mmHg 70%
    15:00 +25°C° 0 mm 5 m/S 762 mmHg 71%
    16:00 +24°C° 0 mm 6 m/S 762 mmHg 72%
    17:00 +23°C° 0 mm 5 m/S 762 mmHg 78%
    18:00 +21°C° 0 mm 5 m/S 763 mmHg 85%
    19:00 +20°C° 0 mm 5 m/S 763 mmHg 92%
    20:00 +20°C° 0,1 mm 5 m/S 764 mmHg 94%
    21:00 +20°C° 0,1 mm 5 m/S 764 mmHg 95%
    22:00 +20°C° 0,1 mm 5 m/S 764 mmHg 96%
    23:00 +20°C° 0,1 mm 5 m/S 764 mmHg 97%

    23 Juni, Samstag

    Zeit Temperatur Niederschläge Wind Luftdruck Luftfeuchtigkeit
    00:00 +20°C° 0,1 mm 5 m/S 763 mmHg 97%
    01:00 +20°C° 0,1 mm 5 m/S 763 mmHg 97%
    02:00 +20°C° 0,1 mm 5 m/S 763 mmHg 97%
    03:00 +20°C° 0,1 mm 5 m/S 762 mmHg 97%
    04:00 +20°C° 0,1 mm 5 m/S 762 mmHg 97%
    05:00 +20°C° 0,1 mm 5 m/S 762 mmHg 97%
    06:00 +20°C° 0,1 mm 5 m/S 763 mmHg 97%
    07:00 +20°C° 0,1 mm 5 m/S 763 mmHg 97%
    08:00 +21°C° 0,2 mm 6 m/S 763 mmHg 94%
    09:00 +22°C° 0,2 mm 6 m/S 764 mmHg 91%
    10:00 +23°C° 0,2 mm 6 m/S 764 mmHg 87%
    11:00 +23°C° 0,2 mm 6 m/S 763 mmHg 85%
    12:00 +23°C° 0,2 mm 6 m/S 763 mmHg 83%
    13:00 +24°C° 0,2 mm 6 m/S 762 mmHg 81%
    14:00 +23°C° 0,2 mm 6 m/S 762 mmHg 82%
    15:00 +23°C° 0,2 mm 6 m/S 762 mmHg 83%
    16:00 +23°C° 0,2 mm 6 m/S 762 mmHg 84%
    17:00 +22°C° 0,1 mm 6 m/S 762 mmHg 87%
    18:00 +21°C° 0,1 mm 6 m/S 763 mmHg 90%
    19:00 +20°C° 0,1 mm 6 m/S 763 mmHg 93%
    20:00 +20°C° 0,1 mm 6 m/S 764 mmHg 95%
    21:00 +20°C° 0,1 mm 5 m/S 764 mmHg 96%
    22:00 +20°C° 0,1 mm 5 m/S 764 mmHg 97%
    23:00 +20°C° 0,2 mm 5 m/S 764 mmHg 97%
    Mehr zeigen